Regional Weather Roundup
Issued by NWS

Home | Current Version | Previous Version | Graphics & Text | Print | Product List | Glossary On
Versions: 1 2 3 4 5 6 7 8 9 10 11 12 13 14 15 16 17 18 19 20 21 22 23 24 25 26 27 28 29 30 31 32 33 34 35 36 37 38 39 40 41 42 43 44 45 46 47 48 49 50
000
ASUS45 KABQ 230810
RWRNM
NEW MEXICO REGIONAL WEATHER ROUNDUP
NATIONAL WEATHER SERVICE ALBUQUERQUE NM
200 AM MDT WED MAY 23 2018

NOTE: "FAIR" MEANS FEW OR NO CLOUDS BELOW 12,000 FEET AGL WITH NO
       SIGNIFICANT WEATHER OR OBSTRUCTIONS TO VISION.

      THIS PRODUCT IS RELEASED AS TWO VERSIONS.  ONE VERSION NEAR
      THE TOP OF THE HOUR CONTAINING PRELIMINARY DATA FROM ALBUQUERQUE
      AND OTHER STATIONS.  A FINAL VERSION WITH ADDITIONAL DATA IS
      ISSUED ABOUT 10 MINUTES AFTER THE HOUR.

NMZ501-503-504-510>518-230900-
NORTHWEST PLATEAU/NORTHCENTRAL MOUNTAINS

CITY           SKY/WX    TMP DP  RH WIND       PRES   REMARKS
FARMINGTON     FAIR      51  21  30 CALM      29.98R
LOS ALAMOS     FAIR      55  49  79 SW6       30.13S
SANTA FE       FAIR      58  53  84 SE14      30.07S
TAOS           FAIR      49  38  65 E3        30.13R
ANGEL FIRE     FOG       39  38  98 CALM      30.21F VSB 1/4

$$
NMZ402-403-502-505>509-230900-
WESTCENTRAL MOUNTAINS/SOUTHWEST MOUNTAINS

CITY           SKY/WX    TMP DP  RH WIND       PRES   REMARKS
GALLUP         FAIR      41  13  31 NE5       30.09R
GRANTS         FAIR      51  28  42 NW8       30.10R
SILVER CITY    FAIR      56  19  23 N10       30.04R

$$
NMZ407-409-411-412-230900-
SOUTHERN DESERTS

CITY           SKY/WX    TMP DP  RH WIND       PRES   REMARKS
DEMING         FAIR      66  14  13 W13       29.97R
LAS CRUCES     FAIR      65  10  12 CALM      29.98R
HOLLOMAN AFB   FAIR      72  55  55 SE14      29.95S
ALAMOGORDO     FAIR      70  55  60 S10       29.95R
T OR C         FAIR      66  10  11 CALM      29.96R

$$
NMZ519>523-230900-
CENTRAL VALLEYS/CENTRAL HIGHLANDS

CITY           SKY/WX    TMP DP  RH WIND       PRES   REMARKS
ALBUQUERQUE    FAIR      60  19  20 SE7       30.00R
DOUBLE EAGLE   FAIR      55  26  32 E10       30.03R
MORIARTY ARPT  FAIR      53  53 100 S3        30.10S
CLINES CORNERS FAIR      54  47  77 S18       30.13S
BELEN          FAIR      56  23  28 CALM      29.99S
SOCORRO        FAIR      59  27  29 SE6       29.98R

$$
NMZ524>526-539-540-230900-
SOUTHCENTRAL MOUNTAINS

CITY           SKY/WX    TMP DP  RH WIND       PRES   REMARKS
RUIDOSO        CLOUDY    55  55 100 SE5       30.17S

$$
NMZ527>531-230900-
NORTHEAST HIGHLANDS/NORTHEAST PLAINS

CITY           SKY/WX    TMP DP  RH WIND       PRES   REMARKS
LAS VEGAS      MOCLDY    53  50  89 SW3       30.13R
RATON          FAIR      51  48  89 NE7       30.08F
CLAYTON        CLOUDY    54  53  97 NE12      30.09F

$$
NMZ532>537-230900-
EASTCENTRAL PLAINS

CITY           SKY/WX    TMP DP  RH WIND       PRES   REMARKS
SANTA ROSA     FAIR      64  51  63 S14G23    30.02F
TUCUMCARI      FAIR      67  58  72 S22G33    29.95F
CANNON AFB     TSTM      61  61 100 NW20      30.11R
CLOVIS AIRPORT CLOUDY    66  54  63 W22G29    30.10R

$$
NMZ028-029-538-230900-
SOUTHEAST PLAINS

CITY           SKY/WX    TMP DP  RH WIND       PRES   REMARKS
ROSWELL        LGT RAIN  66  63  90 N9        29.99R
ARTESIA        MOCLDY    73  61  64 E7        29.98R
CARLSBAD       FAIR      70  60  70 SE8       29.93R
HOBBS          FAIR      70  61  73 SE13G18   29.99S


$$




USA.gov is the U.S. government's official web portal to all federal, state and local government web resources and services.